QPF
0.00 0.00 0.00 0.00 0.00 0.00 0.00 0.00 0.00 0.00 0.00 0.00 0.00 0.01 0.02 0.00 0.00 0.00 0.00 0.00 0.00 0.00 0.00 0.00 0.00 0.00 0.00 0.00 0.00 0.00 0.00 0.00 0.00 0.00 0.00 0.00 0.00 0.00 0.00 0.00 0.00 0.00 0.00
0.00 0.00 0.00 0.00 0.00 0.00 0.00 0.00 0.00 0.00 0.00 0.00 0.00 0.00 0.00 0.00 0.00 0.00 0.00 0.00 0.00 0.00 0.00 0.00 0.00 0.00 0.00 0.00 0.00 0.00 0.00 0.00 0.00 0.00 0.00 0.00 0.00 0.00 0.00 0.00 0.00 0.00 0.00
0.00 0.00 0.00 0.00 0.00 0.00 0.00 0.00 0.00 0.00 0.00 0.00 0.00 0.00 0.00 0.00 0.00 0.00 0.00 0.00 0.00 0.00 0.00 0.00 0.00 0.00 0.00 0.00 0.00 0.00 0.00 0.00 0.00 0.00 0.00 0.00 0.00 0.00 0.00 0.00 0.00 0.00 0.00
0.00 0.00 0.00 0.00 0.00 0.00 0.00 0.00 0.00 0.00 0.00 0.00 0.00 0.00 0.00 0.00 0.00 0.00 0.00 0.00 0.00 0.00 0.00 0.00 0.00 0.00 0.00 0.00 0.00 0.00 0.00 0.00 0.00 0.00 0.00 0.00 0.00 0.00 0.00 0.00 0.00 0.00 0.00
0.00 0.00 0.00 0.00 0.00 0.00 0.00 0.00 0.00 0.00 0.00 0.00 0.00 0.00 0.00 0.00 0.00 0.00 0.00 0.00 0.00 0.00 0.00 0.00 0.00 0.00 0.00 0.00 0.00 0.00 0.00 0.00 0.00 0.00 0.00 0.00 0.00 0.00 0.00 0.00 0.00 0.00 0.00
0.00 0.01 0.03 0.01 0.00 0.00 0.00 0.00 0.00 0.00 0.00 0.00 0.00 0.00 0.00 0.00 0.00 0.00 0.00 0.00 0.00 0.00 0.00 0.00 0.00 0.00 0.00 0.00 0.00 0.00 0.00 0.00 0.00 0.00 0.00 0.00 0.00 0.00 0.00 0.00 0.00 0.00 0.00
0.00 0.00 0.01 0.03 0.02 0.00 0.00 0.00 0.00 0.00 0.00 0.00 0.00 0.00 0.00 0.00 0.00 0.00 0.00 0.00 0.00 0.00 0.00 0.00 0.00 0.00 0.00 0.00 0.00 0.00 0.00 0.00 0.00 0.00 0.00 0.00 0.00 0.00 0.00 0.00 0.00 0.00 0.00
0.06 0.01 0.00 0.00 0.01 0.01 0.00 0.00 0.00 0.00 0.00 0.00 0.00 0.00 0.00 0.00 0.00 0.00 0.00 0.00 0.00 0.00 0.00 0.00 0.00 0.00 0.00 0.00 0.00 0.00 0.00 0.00 0.00 0.00 0.00 0.00 0.00 0.00 0.00 0.00 0.00 0.00 0.00
0.06 0.06 0.01 0.00 0.01 0.02 0.01 0.00 0.00 0.00 0.00 0.00 0.00 0.00 0.00 0.00 0.00 0.00 0.00 0.00 0.00 0.00 0.00 0.00 0.00 0.00 0.00 0.00 0.00 0.00 0.00 0.00 0.00 0.00 0.00 0.00 0.00 0.00 0.00 0.00 0.00 0.00 0.00
0.00 0.01 0.00 0.01 0.04 0.01 0.01 0.02 0.05 0.01 0.00 0.00 0.00 0.00 0.00 0.00 0.00 0.00 0.00 0.00 0.00 0.00 0.00 0.00 0.00 0.00 0.00 0.00 0.00 0.00 0.00 0.00 0.00 0.00 0.00 0.00 0.00 0.00 0.00 0.00 0.00 0.00 0.00
0.02 0.02 0.00 0.01 0.06 0.06 0.02 0.01 0.01 0.02 0.04 0.00 0.00 0.00 0.00 0.00 0.00 0.00 0.00 0.00 0.00 0.00 0.00 0.00 0.00 0.00 0.00 0.00 0.00 0.00 0.00 0.00 0.00 0.00 0.00 0.00 0.00 0.00 0.00 0.00 0.00 0.00 0.00
0.02 0.03 0.02 0.03 0.06 0.09 0.01 0.00 0.00 0.02 0.01 0.00 0.00 0.00 0.00 0.00 0.00 0.00 0.00 0.00 0.00 0.00 0.00 0.00 0.00 0.00 0.00 0.00 0.00 0.00 0.00 0.00 0.00 0.00 0.00 0.00 0.00 0.00 0.00 0.00 0.00 0.00 0.00
0.00 0.00 0.01 0.00 0.02 0.07 0.04 0.03 0.03 0.02 0.00 0.00 0.00 0.00 0.00 0.00 0.00 0.00 0.00 0.00 0.00 0.00 0.00 0.00 0.00 0.00 0.00 0.00 0.00 0.00 0.00 0.00 0.00 0.00 0.00 0.00 0.00 0.00 0.00 0.00 0.00 0.00 0.00
0.01 0.01 0.00 0.00 0.00 0.06 0.07 0.10 0.13 0.05 0.01 0.00 0.00 0.00 0.00 0.00 0.00 0.00 0.00 0.00 0.00 0.00 0.00 0.00 0.00 0.00 0.00 0.00 0.00 0.00 0.00 0.00 0.00 0.00 0.00 0.00 0.00 0.00 0.00 0.00 0.00 0.00 0.00
0.00 0.00 0.00 0.00 0.00 0.00 0.04 0.07 0.05 0.06 0.04 0.03 0.02 0.00 0.00 0.00 0.01 0.00 0.00 0.00 0.00 0.00 0.01 0.00 0.00 0.00 0.00 0.00 0.00 0.00 0.00 0.00 0.00 0.00 0.00 0.00 0.00 0.00 0.00 0.00 0.00 0.01 0.01
0.00 0.00 0.00 0.00 0.03 0.03 0.04 0.01 0.04 0.05 0.07 0.04 0.10 0.04 0.03 0.06 0.07 0.06 0.02 0.00 0.00 0.00 0.01 0.00 0.00 0.00 0.00 0.00 0.00 0.00 0.00 0.00 0.00 0.00 0.00 0.00 0.00 0.00 0.00 0.00 0.01 0.02 0.03
0.00 0.00 0.00 0.00 0.01 0.05 0.03 0.03 0.02 0.06 0.07 0.06 0.05 0.04 0.03 0.06 0.05 0.11 0.10 0.04 0.04 0.03 0.00 0.00 0.00 0.00 0.00 0.00 0.00 0.00 0.00 0.00 0.00 0.00 0.00 0.00 0.00 0.01 0.01 0.01 0.02 0.06 0.09
0.00 0.00 0.00 0.00 0.00 0.02 0.01 0.04 0.05 0.04 0.04 0.03 0.05 0.03 0.02 0.01 0.01 0.01 0.01 0.00 0.03 0.02 0.00 0.00 0.01 0.00 0.00 0.00 0.00 0.00 0.00 0.01 0.00 0.00 0.00 0.02 0.06 0.08 0.07 0.12 0.16 0.14 0.15
0.00 0.00 0.00 0.00 0.00 0.02 0.03 0.03 0.04 0.06 0.05 0.03 0.06 0.03 0.03 0.04 0.02 0.01 0.01 0.03 0.03 0.03 0.00 0.01 0.07 0.04 0.02 0.00 0.00 0.00 0.03 0.06 0.01 0.00 0.00 0.01 0.02 0.02 0.05 0.12 0.32 0.44 0.42
0.00 0.00 0.00 0.00 0.00 0.00 0.00 0.01 0.04 0.04 0.03 0.02 0.02 0.01 0.05 0.08 0.04 0.04 0.19 0.31 0.13 0.07 0.04 0.00 0.02 0.03 0.03 0.04 0.06 0.06 0.07 0.09 0.04 0.03 0.02 0.01 0.02 0.01 0.06 0.36 0.44 0.24 0.11
0.00 0.00 0.00 0.00 0.00 0.00 0.00 0.00 0.00 0.01 0.01 0.01 0.02 0.02 0.07 0.07 0.05 0.10 0.13 0.16 0.12 0.06 0.01 0.00 0.01 0.00 0.01 0.02 0.05 0.05 0.07 0.08 0.08 0.05 0.00 0.00 0.00 0.00 0.06 0.40 0.33 0.12 0.06
0.00 0.00 0.00 0.00 0.00 0.00 0.00 0.00 0.00 0.00 0.00 0.00 0.00 0.01 0.10 0.14 0.11 0.06 0.01 0.01 0.01 0.01 0.01 0.02 0.05 0.05 0.06 0.10 0.12 0.10 0.08 0.05 0.04 0.02 0.00 0.02 0.03 0.02 0.03 0.07 0.09 0.08 0.07
0.00 0.00 0.00 0.00 0.00 0.01 0.00 0.00 0.00 0.00 0.01 0.02 0.01 0.00 0.00 0.01 0.01 0.01 0.02 0.02 0.03 0.05 0.04 0.04 0.07 0.11 0.12 0.13 0.13 0.10 0.07 0.03 0.01 0.00 0.00 0.01 0.04 0.11 0.09 0.09 0.10 0.09 0.03
0.00 0.00 0.00 0.00 0.01 0.00 0.00 0.01 0.00 0.02 0.04 0.03 0.02 0.02 0.02 0.03 0.07 0.11 0.12 0.11 0.09 0.11 0.11 0.05 0.03 0.03 0.06 0.04 0.03 0.01 0.01 0.00 0.00 0.01 0.01 0.01 0.02 0.03 0.01 0.01 0.01 0.01 0.00
0.00 0.00 0.01 0.02 0.03 0.02 0.01 0.01 0.03 0.03 0.02 0.07 0.10 0.06 0.05 0.05 0.07 0.08 0.08 0.09 0.08 0.08 0.05 0.02 0.00 0.00 0.00 0.00 0.00 0.00 0.02 0.04 0.03 0.03 0.02 0.03 0.06 0.06 0.03 0.01 0.02 0.01 0.00
0.01 0.01 0.02 0.02 0.05 0.04 0.03 0.01 0.01 0.05 0.13 0.13 0.21 0.22 0.19 0.14 0.17 0.21 0.24 0.28 0.27 0.24 0.24 0.16 0.10 0.06 0.05 0.05 0.05 0.07 0.07 0.11 0.19 0.27 0.33 0.31 0.20 0.15 0.09 0.07 0.03 0.00 0.00
MSLP
1013.33 1013.87 1014.58 1014.97 1015.62 1016.26 1016.95 1017.44 1017.80 1018.07 1018.28 1018.59 1018.87 1019.08 1019.39 1019.58 1019.85 1020.39 1020.71 1021.04 1021.28 1021.35 1021.51 1021.60 1021.55 1021.60 1021.63 1021.64 1021.63 1021.65 1021.72 1021.84 1022.10 1021.35 1020.83 1020.07 1019.75 1019.53 1019.04 1018.79 1018.48 1018.22 1017.91
1012.27 1013.04 1013.91 1014.46 1014.95 1015.66 1016.15 1016.63 1017.19 1017.62 1017.87 1018.12 1018.44 1018.73 1019.07 1019.32 1019.59 1020.03 1020.43 1020.80 1021.13 1021.29 1021.28 1021.42 1021.31 1021.29 1021.37 1021.41 1021.48 1021.38 1021.45 1021.51 1021.71 1021.54 1020.90 1020.34 1019.91 1019.47 1019.10 1018.81 1018.15 1017.88 1017.74
1012.51 1012.75 1013.34 1013.96 1014.40 1014.67 1015.29 1015.80 1016.44 1016.97 1017.35 1017.67 1018.04 1018.35 1018.66 1018.96 1019.17 1019.55 1019.95 1020.29 1020.63 1020.76 1020.82 1020.92 1020.83 1021.05 1021.15 1021.15 1021.18 1021.24 1021.23 1021.23 1021.32 1021.31 1020.99 1020.46 1019.98 1019.49 1019.09 1018.73 1018.45 1017.84 1017.47
1012.07 1012.62 1012.87 1013.19 1013.65 1013.96 1014.30 1015.04 1015.49 1015.99 1016.61 1017.09 1017.54 1017.87 1018.16 1018.51 1018.71 1018.98 1019.40 1019.74 1020.04 1020.26 1020.31 1020.37 1020.33 1020.44 1020.59 1020.64 1020.75 1020.81 1020.87 1021.01 1020.98 1020.92 1020.69 1020.41 1020.11 1019.50 1019.34 1019.19 1018.57 1018.11 1017.40
1011.63 1011.97 1012.05 1012.27 1012.77 1013.29 1013.59 1014.03 1014.76 1015.28 1015.69 1016.21 1016.88 1017.37 1017.71 1018.05 1018.21 1018.42 1018.77 1019.14 1019.42 1019.64 1019.70 1019.76 1019.84 1019.86 1019.88 1019.99 1020.25 1020.27 1020.44 1020.61 1020.62 1020.58 1020.49 1020.19 1019.81 1019.51 1019.39 1019.07 1018.93 1018.32 1017.49
1010.71 1010.93 1011.47 1011.74 1012.17 1012.64 1012.97 1013.19 1013.86 1014.48 1014.94 1015.48 1015.97 1016.49 1017.02 1017.35 1017.52 1017.83 1018.13 1018.51 1018.79 1019.00 1019.11 1019.12 1019.14 1019.28 1019.35 1019.45 1019.51 1019.58 1019.72 1020.02 1019.97 1020.04 1019.88 1019.76 1019.30 1019.09 1018.84 1018.78 1018.60 1018.44 1017.55
1010.06 1010.64 1011.07 1011.63 1011.85 1012.21 1012.57 1012.89 1013.17 1013.57 1014.14 1014.52 1015.01 1015.55 1015.93 1016.29 1016.73 1017.17 1017.49 1017.82 1017.96 1018.18 1018.31 1018.37 1018.45 1018.56 1018.70 1018.87 1018.85 1018.84 1018.90 1018.95 1019.00 1018.99 1019.05 1018.81 1018.60 1018.39 1018.33 1018.24 1018.14 1018.08 1017.91
1009.69 1010.07 1010.59 1010.73 1011.01 1011.39 1011.89 1012.09 1012.29 1012.76 1013.23 1013.55 1013.93 1014.49 1014.83 1015.10 1015.66 1016.20 1016.68 1017.09 1017.23 1017.31 1017.37 1017.53 1017.74 1017.77 1017.88 1018.11 1018.32 1018.37 1018.26 1018.08 1017.93 1018.11 1018.11 1017.71 1017.59 1017.24 1017.73 1017.63 1017.57 1017.54 1017.37
1010.27 1009.90 1010.03 1010.00 1010.31 1010.60 1010.91 1011.11 1011.54 1012.10 1012.44 1012.71 1012.97 1013.44 1013.84 1014.07 1014.52 1015.19 1015.84 1016.35 1016.50 1016.48 1016.62 1016.68 1016.88 1017.04 1017.07 1017.41 1017.76 1017.87 1017.69 1017.26 1016.88 1017.11 1016.99 1016.91 1016.90 1017.01 1017.21 1017.59 1017.50 1017.53 1017.09
1010.91 1010.65 1010.52 1009.86 1009.65 1009.88 1009.99 1010.26 1010.52 1011.17 1011.44 1011.86 1012.13 1012.36 1012.70 1013.21 1013.68 1014.11 1014.75 1015.26 1015.48 1015.54 1015.73 1015.82 1015.92 1016.13 1016.30 1016.64 1017.09 1017.13 1017.09 1016.54 1016.57 1016.46 1016.58 1016.50 1016.42 1016.35 1016.51 1016.88 1016.84 1017.11 1016.93
1011.37 1011.00 1010.73 1010.38 1010.37 1009.81 1009.29 1009.21 1009.54 1010.28 1010.74 1011.05 1011.23 1011.38 1011.80 1012.21 1012.67 1013.10 1013.54 1014.07 1014.19 1014.46 1014.63 1014.73 1014.86 1015.05 1015.35 1015.68 1015.99 1016.22 1015.89 1015.85 1015.92 1016.01 1016.02 1016.01 1015.82 1015.76 1015.64 1015.65 1015.81 1016.22 1016.23
1011.99 1011.49 1011.08 1010.22 1009.95 1009.65 1008.76 1008.06 1008.56 1009.10 1009.61 1009.91 1010.18 1010.48 1010.67 1011.17 1011.67 1012.03 1012.42 1012.82 1013.02 1013.28 1013.37 1013.61 1013.80 1014.01 1014.33 1014.63 1015.13 1015.06 1015.08 1015.29 1015.60 1015.78 1015.91 1015.74 1015.54 1015.19 1014.88 1014.79 1014.76 1014.95 1014.97
1012.28 1011.79 1010.90 1010.13 1009.37 1008.81 1008.34 1007.26 1007.74 1008.18 1008.53 1009.09 1009.25 1009.31 1009.60 1010.06 1010.54 1010.88 1011.36 1011.77 1012.11 1012.55 1012.45 1012.53 1012.85 1013.13 1013.47 1013.87 1014.05 1014.06 1014.31 1015.00 1015.13 1015.37 1015.13 1014.74 1014.41 1014.21 1014.19 1014.21 1014.03 1014.12 1014.21
1011.51 1010.68 1010.17 1009.74 1009.23 1008.53 1007.93 1007.03 1006.61 1006.84 1007.47 1007.86 1008.10 1008.19 1008.58 1009.01 1009.27 1009.73 1010.67 1011.27 1011.46 1011.91 1011.91 1012.02 1012.15 1012.47 1012.78 1012.89 1013.11 1013.17 1013.66 1013.83 1014.10 1014.05 1013.88 1013.62 1013.69 1013.89 1013.91 1013.78 1013.90 1013.81 1013.91
1011.90 1011.17 1010.17 1009.75 1009.06 1008.11 1007.45 1005.81 1005.54 1005.23 1005.65 1006.40 1006.65 1007.12 1007.63 1007.63 1007.51 1008.15 1008.66 1009.43 1010.03 1010.47 1011.09 1011.48 1011.54 1011.96 1012.13 1012.24 1012.23 1012.18 1012.39 1012.78 1013.12 1013.06 1013.19 1013.25 1013.33 1013.40 1013.31 1013.21 1013.17 1013.07 1013.21
1011.41 1010.88 1009.81 1009.08 1008.32 1007.49 1006.73 1005.56 1005.33 1005.05 1004.73 1005.08 1005.61 1006.19 1006.48 1006.39 1007.01 1007.61 1007.92 1008.31 1008.89 1009.63 1010.56 1010.33 1010.33 1010.64 1010.74 1010.85 1010.95 1011.06 1011.29 1011.52 1011.65 1011.93 1012.07 1012.12 1012.28 1012.38 1012.46 1012.46 1012.53 1012.63 1012.96
1011.78 1010.87 1010.75 1009.65 1009.08 1008.20 1006.99 1005.28 1004.11 1004.63 1004.91 1004.85 1005.18 1005.38 1005.88 1006.31 1006.29 1006.90 1007.10 1007.58 1008.45 1009.38 1009.25 1009.17 1009.20 1009.30 1009.37 1009.56 1009.77 1009.89 1009.92 1009.98 1010.21 1010.69 1010.99 1011.09 1011.23 1011.33 1011.44 1011.59 1011.91 1012.29 1012.69
1012.17 1011.34 1010.61 1009.20 1009.29 1008.16 1006.99 1005.98 1005.55 1004.74 1004.71 1004.53 1004.92 1005.35 1005.48 1005.62 1005.71 1006.00 1006.43 1007.63 1008.89 1009.10 1008.48 1008.25 1008.06 1008.25 1008.39 1008.56 1008.64 1008.79 1008.97 1009.11 1009.47 1009.66 1009.80 1009.80 1009.89 1010.03 1010.40 1010.99 1011.54 1011.92 1012.47
1012.17 1010.85 1009.81 1009.34 1009.25 1008.43 1007.09 1006.30 1005.61 1004.50 1003.68 1003.91 1004.59 1004.99 1005.01 1005.26 1005.75 1006.16 1006.37 1006.81 1007.29 1007.43 1007.39 1007.29 1007.11 1007.12 1007.28 1007.31 1007.34 1007.62 1007.84 1008.31 1008.53 1008.79 1009.00 1009.11 1009.10 1009.31 1009.79 1010.26 1010.71 1010.72 1010.51
1010.42 1009.12 1008.99 1009.24 1008.49 1006.98 1006.89 1006.31 1005.50 1004.69 1003.79 1003.62 1003.84 1003.71 1004.27 1005.31 1005.76 1005.89 1006.03 1006.27 1006.42 1006.19 1006.29 1006.24 1006.14 1006.01 1006.34 1006.70 1007.03 1007.12 1007.27 1007.73 1007.85 1007.90 1008.12 1008.32 1008.43 1008.49 1008.63 1009.07 1009.49 1009.71 1009.29
1010.47 1010.04 1009.92 1009.51 1008.62 1007.94 1007.88 1006.95 1006.14 1005.34 1003.89 1002.93 1002.84 1002.73 1002.74 1003.88 1004.22 1004.62 1005.09 1005.65 1005.89 1005.86 1005.94 1006.01 1005.85 1005.68 1005.75 1006.02 1006.36 1006.58 1006.91 1007.26 1007.33 1007.66 1007.85 1008.00 1008.27 1008.69 1008.89 1009.12 1009.16 1009.31 1009.34
1010.63 1010.51 1010.23 1009.82 1009.42 1008.81 1008.50 1007.79 1006.79 1005.85 1004.65 1003.11 1002.97 1003.15 1003.22 1003.80 1004.23 1004.73 1005.31 1005.81 1006.27 1006.65 1006.85 1006.92 1007.00 1007.23 1007.21 1007.31 1007.27 1007.08 1007.03 1007.49 1007.51 1007.75 1007.73 1007.72 1007.85 1008.03 1008.25 1008.33 1008.38 1009.00 1008.87
1010.78 1010.08 1009.66 1009.53 1008.80 1008.05 1008.80 1007.79 1007.09 1006.57 1005.71 1004.66 1003.99 1004.32 1004.19 1004.47 1005.16 1005.69 1006.51 1007.10 1007.33 1007.62 1008.18 1007.77 1008.17 1008.34 1008.23 1008.47 1008.74 1008.63 1008.79 1008.77 1008.57 1008.47 1008.18 1007.83 1007.79 1007.97 1008.13 1008.01 1007.83 1007.91 1008.27
1011.31 1010.95 1010.68 1010.41 1009.92 1009.50 1008.98 1007.69 1007.67 1007.65 1006.56 1006.25 1005.75 1005.99 1006.57 1006.74 1006.49 1006.87 1007.17 1007.73 1008.25 1008.85 1009.91 1008.69 1009.53 1009.73 1009.72 1009.64 1009.94 1009.86 1009.79 1009.85 1009.13 1008.49 1008.76 1008.74 1008.79 1008.67 1008.56 1008.54 1008.37 1008.21 1008.23
1011.49 1011.32 1011.05 1010.89 1010.61 1009.92 1009.48 1009.13 1008.95 1008.62 1007.94 1007.63 1007.27 1007.59 1008.09 1008.37 1008.65 1008.49 1008.53 1008.41 1009.10 1009.41 1009.87 1010.74 1011.05 1010.70 1011.18 1010.74 1010.50 1010.59 1010.33 1010.33 1009.72 1008.66 1008.63 1008.87 1009.33 1009.56 1008.78 1008.76 1009.25 1009.13 1008.59
1011.87 1011.85 1011.47 1010.83 1010.93 1010.68 1010.49 1010.42 1010.14 1009.93 1009.07 1008.79 1008.86 1009.17 1009.50 1009.60 1009.49 1010.40 1010.49 1010.33 1009.95 1009.95 1010.49 1011.15 1012.51 1011.40 1011.65 1011.94 1011.75 1011.28 1011.42 1010.50 1010.79 1010.24 1009.97 1009.91 1009.30 1009.91 1009.70 1010.03 1009.68 1009.41 1009.55
Thickness
5794 5792 5789 5790 5788 5785 5782 5781 5780 5780 5780 5780 5781 5780 5780 5780 5779 5776 5775 5774 5773 5773 5773 5772 5773 5776 5777 5779 5780 5781 5781 5779 5773 5781 5787 5794 5796 5798 5801 5802 5804 5805 5806
5799 5797 5793 5791 5789 5788 5787 5785 5784 5782 5782 5782 5782 5782 5782 5781 5780 5778 5776 5776 5773 5772 5773 5773 5775 5778 5778 5780 5780 5782 5782 5783 5780 5778 5786 5791 5794 5799 5801 5803 5807 5807 5806
5788 5792 5792 5791 5791 5792 5791 5790 5786 5784 5784 5784 5783 5783 5783 5782 5782 5780 5779 5777 5776 5777 5777 5776 5778 5777 5776 5778 5780 5780 5782 5784 5783 5781 5783 5790 5793 5798 5800 5802 5804 5806 5807
5785 5785 5787 5791 5792 5793 5793 5790 5790 5788 5785 5785 5784 5784 5784 5783 5783 5782 5780 5779 5778 5778 5779 5779 5780 5779 5779 5780 5780 5781 5782 5782 5783 5783 5784 5787 5791 5797 5798 5796 5799 5804 5806
5783 5784 5788 5791 5792 5791 5793 5793 5789 5789 5789 5787 5784 5783 5783 5783 5784 5783 5782 5781 5780 5779 5781 5781 5782 5783 5783 5784 5782 5782 5782 5781 5781 5781 5782 5785 5789 5792 5792 5797 5794 5800 5806
5787 5788 5788 5789 5789 5789 5790 5793 5791 5789 5788 5786 5786 5785 5784 5785 5787 5784 5784 5781 5780 5780 5780 5782 5783 5784 5784 5784 5784 5785 5786 5782 5781 5781 5783 5785 5789 5792 5796 5795 5795 5793 5796
5784 5783 5784 5782 5784 5785 5785 5786 5788 5788 5788 5789 5788 5787 5788 5789 5787 5785 5784 5783 5783 5782 5783 5784 5784 5786 5785 5785 5786 5787 5787 5787 5788 5789 5786 5788 5790 5794 5796 5794 5795 5795 5793
5779 5781 5782 5784 5784 5785 5785 5787 5790 5790 5787 5789 5791 5790 5790 5794 5791 5787 5785 5785 5786 5786 5788 5787 5786 5788 5788 5787 5785 5786 5787 5788 5789 5790 5792 5796 5798 5800 5797 5799 5799 5799 5799
5767 5776 5777 5784 5784 5785 5787 5790 5790 5787 5787 5789 5791 5791 5791 5794 5793 5789 5785 5785 5786 5788 5789 5790 5790 5790 5791 5787 5785 5784 5786 5789 5792 5794 5796 5797 5800 5798 5798 5795 5793 5792 5793
5755 5760 5765 5776 5784 5784 5788 5788 5790 5788 5788 5786 5788 5792 5793 5793 5792 5791 5788 5788 5788 5790 5790 5792 5792 5793 5792 5789 5786 5785 5784 5789 5788 5791 5794 5797 5798 5799 5799 5797 5796 5790 5790
5743 5751 5758 5764 5768 5777 5785 5790 5790 5787 5787 5787 5789 5792 5793 5794 5793 5791 5789 5791 5793 5792 5792 5794 5796 5795 5792 5791 5789 5791 5792 5792 5790 5790 5792 5794 5796 5798 5799 5800 5799 5795 5791
5728 5737 5744 5756 5765 5771 5782 5791 5790 5788 5786 5787 5789 5791 5796 5795 5792 5792 5791 5793 5797 5795 5796 5797 5798 5796 5794 5792 5788 5792 5793 5789 5788 5785 5786 5788 5790 5794 5798 5800 5800 5799 5798
5712 5726 5740 5750 5761 5770 5775 5787 5788 5787 5787 5785 5789 5792 5794 5795 5793 5792 5791 5792 5792 5793 5799 5799 5796 5793 5791 5790 5791 5792 5790 5785 5784 5781 5784 5788 5793 5797 5798 5798 5799 5798 5797
5713 5725 5737 5746 5753 5763 5771 5781 5790 5792 5789 5789 5791 5796 5795 5795 5796 5796 5791 5787 5788 5788 5793 5792 5793 5791 5790 5792 5792 5792 5789 5788 5786 5787 5789 5793 5792 5791 5791 5793 5793 5793 5791
5700 5713 5729 5738 5742 5753 5766 5785 5791 5801 5798 5794 5795 5795 5792 5797 5805 5800 5797 5794 5792 5790 5784 5785 5790 5788 5789 5790 5791 5792 5791 5788 5787 5788 5787 5785 5784 5786 5787 5790 5791 5793 5789
5689 5706 5718 5730 5740 5750 5761 5777 5782 5791 5796 5798 5796 5797 5799 5802 5799 5794 5795 5795 5791 5783 5779 5788 5792 5792 5792 5792 5792 5791 5791 5790 5792 5789 5789 5788 5786 5786 5787 5787 5788 5786 5782
5667 5691 5697 5711 5723 5734 5749 5768 5787 5787 5785 5791 5791 5794 5793 5796 5796 5793 5793 5790 5782 5775 5786 5789 5791 5793 5794 5793 5793 5792 5793 5794 5795 5792 5789 5789 5788 5789 5788 5787 5783 5778 5773
5651 5668 5684 5705 5709 5724 5741 5755 5762 5773 5777 5786 5785 5787 5788 5789 5791 5791 5789 5782 5774 5771 5784 5787 5791 5791 5792 5791 5791 5791 5790 5791 5789 5789 5789 5792 5793 5794 5790 5782 5775 5772 5766
5638 5660 5677 5689 5694 5707 5725 5739 5747 5763 5775 5778 5778 5780 5783 5783 5781 5779 5780 5787 5783 5782 5783 5787 5790 5792 5791 5792 5794 5791 5790 5786 5785 5784 5784 5786 5787 5786 5781 5776 5771 5766 5765
5638 5664 5670 5675 5689 5709 5714 5724 5738 5753 5764 5770 5774 5782 5779 5775 5778 5780 5778 5780 5782 5786 5786 5787 5790 5790 5788 5784 5781 5782 5782 5778 5778 5778 5777 5776 5777 5778 5778 5772 5767 5761 5761
5622 5639 5648 5661 5676 5688 5694 5708 5720 5734 5754 5767 5774 5781 5781 5777 5779 5781 5780 5777 5776 5779 5780 5781 5781 5782 5782 5781 5777 5775 5772 5769 5768 5765 5765 5765 5764 5762 5761 5760 5759 5753 5745
5605 5616 5632 5645 5656 5665 5674 5687 5703 5716 5733 5753 5759 5761 5763 5765 5767 5767 5762 5758 5758 5757 5757 5757 5756 5756 5756 5756 5757 5760 5762 5756 5755 5752 5753 5753 5752 5753 5753 5751 5749 5741 5737
5588 5605 5621 5632 5647 5662 5660 5672 5686 5696 5707 5722 5735 5739 5744 5744 5741 5740 5736 5735 5737 5737 5732 5736 5733 5732 5733 5730 5727 5729 5730 5731 5732 5733 5736 5738 5738 5737 5737 5739 5740 5733 5726
5567 5582 5593 5606 5622 5634 5645 5661 5667 5672 5687 5694 5701 5705 5706 5708 5713 5714 5715 5715 5714 5711 5702 5712 5707 5706 5707 5706 5705 5706 5709 5708 5711 5716 5714 5715 5714 5714 5714 5716 5719 5718 5716
5551 5564 5576 5586 5597 5614 5626 5635 5643 5652 5661 5669 5677 5679 5678 5681 5682 5686 5688 5693 5689 5689 5686 5681 5679 5682 5679 5683 5683 5684 5689 5688 5692 5698 5698 5696 5691 5691 5698 5698 5694 5695 5701
5535 5544 5558 5573 5578 5589 5600 5609 5618 5625 5639 5645 5648 5650 5653 5654 5657 5653 5655 5659 5663 5665 5662 5658 5646 5656 5653 5652 5655 5660 5660 5667 5665 5668 5670 5670 5676 5666 5668 5672 5676 5674 5675